Regional Weather Roundup
Issued by NWS

Home | Current Version | Previous Version | Text Only | Print | Product List | Glossary Off
Versions: 1 2 3 4 5 6 7 8 9 10 11 12 13 14 15 16 17 18 19 20 21 22 23 24 25 26 27

000
ASUS45 KSLC 202010
RWRUT

UTAH REGIONAL WEATHER ROUNDUP
NATIONAL WEATHER SERVICE SALT LAKE CITY UT
200 PM MDT FRI APR 20 2018

UTZ001>011-023>025-202100-

NORTHERN UTAH

CITY           SKY/WX    TMP DP  RH WIND       PRES   REMARKS
BRIGHAM CITY   CLOUDY    61  31  32 S9        29.99S
HILL AFB       CLOUDY    54  36  50 E9        29.99R
LOGAN          CLOUDY    63  33  32 S15       29.97R
OGDEN          CLOUDY    58  34  40 N8        29.98R
SALT LAKE CITY PTSUNNY   60  35  39 N7        29.97R
TOOELE VALLEY  CLOUDY    59  37  44 N9G17     29.99R
WENDOVER       SUNNY     67  22  18 NW15G26   30.01R
HEBER CITY       N/A     50  32  50 SW5       29.98S
WEST JORDAN    PTSUNNY   59  36  43 N12       29.98R

$$

UTZ011>015-024>027-202100-

CENTRAL/NORTHEAST UTAH

CITY           SKY/WX    TMP DP  RH WIND       PRES   REMARKS
PROVO AIRPORT  CLOUDY    50  39  66 SW6       30.01R
MOAB/CANYONLAN CLOUDY    56  19  23 NW10G18   29.90R
DELTA          CLOUDY    45  37  76 SW7       30.04R
PRICE          CLOUDY    53  17  24 VRB6      29.94R
RICHFIELD      MOSUNNY   50  34  53 CALM      30.00R
ROOSEVELT      LGT RAIN  46  32  57 SW6       29.99S
VERNAL         LGT RAIN  46  35  65 NE7       29.97R

$$

UTZ013>016-019>022-027-202100-

SOUTHERN UTAH

CITY           SKY/WX    TMP DP  RH WIND       PRES   REMARKS
BRYCE CANYON   PTSUNNY   39  30  70 NE17G26   30.00R WCI  30
CEDAR CITY     LGT RAIN  38  37  97 E6        30.06R WCI  33
MILFORD        CLOUDY    45  40  82 N7        30.05R
ST GEORGE      CLOUDY    54  43  66 W18G24    30.05R
HANKSVILLE     SUNNY     52  32  46 SE8       29.99S
KANAB          MOSUNNY   52  41  66 NW10G18   30.01S
BLANDING         N/A     48  20  32 W8        30.01S

$$

REGIONAL REPORTS     COLORADO/ARIZONA

CITY           SKY/WX    TMP DP  RH WIND       PRES   REMARKS
CRAIG, CO      CLOUDY    41  38  89 W10       29.89S
GRAND JUNCTION CLOUDY    48  27  44 E10       29.95R
RIFLE, CO      CLOUDY    39  35  86 W22G32    29.93R WCI  29
MONTROSE, CO   PTSUNNY   48  26  42 NW17      29.95R
CORTEZ, CO     MOSUNNY   51  20  29 S12       29.96S
COLORADO CITY  CLOUDY    50  43  76 NW18G28   30.05R
PAGE, AZ       LGT RAIN  45  41  86 NW7       29.99R
GRAND CANYON   LGT RAIN  41  33  73 W13G21    30.01
KINGMAN, AZ    MOSUNNY   66  28  24 MISG      30.01S
FLAGSTAFF, AZ  CLOUDY    41  27  57 W7G23     30.01F

$$

REGIONAL REPORTS    NEVADA/IDAHO/WYOMING

CITY           SKY/WX    TMP DP  RH WIND       PRES   REMARKS
LAS VEGAS, NV  MOSUNNY   77  29  17 NW21G32   29.98S
ELY, NY        SUNNY     61  17  18 N30G39    30.05R
ELKO, NV       SUNNY     63  21  20 NW21G28   30.12S
POCATELLO, ID  MOSUNNY   65  29  25 NW9       30.00F
BURLEY, ID     SUNNY     60  29  30 W21G31    30.05F
FORT BRIDGER,    N/A     40  37  89 S10       30.04S WCI  34
EVANSTON, WY   CLOUDY    43  31  62 VRB6      30.03R
ROCK SPRINGS,  CLOUDY    48  23  37 NE24G35   29.94F
KEMMERER, WY   PTSUNNY   48  32  53 SW9G16    30.00F

$$




USA.gov is the U.S. government's official web portal to all federal, state and local government web resources and services.